User: anonymous   Login
Location: Darlington Observatory
(36.4817°N, 105.8156°W)
Time: 02:49:04
(UTC-07:00)
Language:

MOS 1 - Orbit

View from above orbital plane
View from above orbital plane
View from above satellite
View from above satellite

Ground track
Ground track

The orbit data is extracted from the following two-line orbital elements,

1 17527U 87018A   16342.90016902  .00000197  00000-0  15805-3 0  9998
2 17527  99.2707 347.8620 0009205  98.2383 322.8444 14.02465701522643
Epoch (UTC): 07 December 2016 21:36:14
Eccentricity: 0.0009205
inclination: 99.2707°
perigee height: 878 km
apogee height: 892 km
right ascension of ascending node: 347.8620°
argument of perigee: 98.2383°
revolutions per day: 14.02465701
mean anomaly at epoch: 322.8444°
orbit number at epoch: 52264

The dashed part of the orbit path shows where the satellite is in the earth's shadow,  

DLR